STARLINK-4729, 53804

Orbit data source: Space-Track

STARLINK-4729, 53804 is a payload satellite owned by SpaceX/Seattle (US) in LEO that was launched on Sun, 11 Sep 2022 UTC via an FALCON 9 launch vehicle from the Air Force Eastern Test Range (AFETR). Payload-class satellites include a variety of spacecraft equipped with specific instruments for various scientific and technological missions. These include communications satellites like Starlink; space stations such as the ISS; scientific satellites like the Hubble; Earth observation satellites from companies like Planet Labs, Umbra, and HawkEye 360; GPS; miniature CubeSats for education and research; and military/defense satellites.

Loading next visibility...
Identifier
53804, 2022-111AH
Orbit
LEO
Country
Flag of USUS
Related business
Manufacturer
SpaceX/Seattle
Mission
Operational Commercial Communications
Bus & Motor
STARLINK, Unknown motor
Mass
305 kg wet, ~290 kg dry
Launch date (UTC)
2022-09-11 (3 years ago)
Launch vehicle
FALCON 9
Launch site
Air Force Eastern Test Range (AFETR)
Object type
Payload
Rocket body
Debris
Shape & HBR
Box + 1 Pan, 4.4 m
Radar Cross Section
13.562 m², Large (>1 m²)

Expand to show TLE details & history
Last TLE update: 16 hours ago

TLE from 16 hours ago
0 STARLINK-4729
1 53804U 22111AH  25258.51246244  .00000767  00000-0  66279-4 0  9991
2 53804  53.2184 325.3089 0001143  70.7153 289.3963 15.08843218167449
Epoch: 2025-09-15T12:17Z
TLE epoch observation values (Epoch: 2025-09-15T12:17:56.754Z)
Latitude
-0.00002°
Longitude
146.10636°
Altitude
540.369 km
Speed
7.594 km/s
True Right ascension
21h 41m 14s
True Declination
0° 00' 00"
Sunlit
Object was in full shadow at epoch
Visualization orbit readout
Latitude
Unknown
Longitude
Unknown
Altitude
Unknown
Speed
Unknown
Apparent Right ascension
Unknown
Apparent Declination
Unknown
Sunlit
N/A
Visualization observer readout
Local Sidereal Time
20:31:25
Azimuth
Unknown
Elevation
Unknown
Doppler factor
Unknown
Orbital elements
Apogee altitude
540.769 km
Perigee altitude
539.188 km
Semi-major axis
6,918.115 km
Eccentricity
0.00011
Inclination
53.2184°
RAAN
325.3089°
Arg. of periapsis
70.7153°
True anomaly
289.38394°
Mean anomaly
289.3963°
Eccentric anomaly
289.39012°
Mean motion
3.77191 °/min
Orbital period
95.44 mins
BSTAR
0.000066279
Loading maneuver chart data...
Computing Atmospheric mass density...
Loading historical data...
Loading historical data...
Loading historical data...
Loading historical data...
Loading historical data...
Loading historical data...
Loading historical data...

Documentation

Showing up to 5 results
|